Location: Clyde
(45.1830°S, 169.3170°E)
Time: 18:40:05
(UTC+13:00)

SeaSat 1 - Pass Details

Date: 24 January 2019
Orbit: 744 x 748 km, 108.0° (Epoch: 16 February)

Event Time Altitude Azimuth Distance (km) Brightness Sun altitude
Rises 23:36:02 0° 146° (SSE) 3,223 6.0 -18.3°
Reaches altitude 10° 23:38:27 10° 139° (SE) 2,292 5.1 -18.5°
Maximum altitude 23:43:08 40° 69° (ENE) 1,101 2.9 -19.0°
Enters shadow 23:44:00 37° 44° (NE) 1,160 2.9 -19.1°
